Regional Weather Roundup
Issued by NWS New Orleans/Baton Rouge, LA

Home | Current Version | Previous Version | Text Only | Print | Product List | Glossary On
Versions: 1 2 3 4 5 6 7 8 9 10 11 12 13 14 15 16 17 18 19 20 21 22 23 24 25 26 27 28 29 30 31 32 33 34 35 36 37 38 39 40 41 42 43 44 45 46 47 48 49 50
000
ASUS44 KLIX 281013
RWRLIX
NEW ORLEANS REGIONAL WEATHER ROUNDUP
NATIONAL WEATHER SERVICE NEW ORLEANS LA
500 AM CDT TUE MAR 28 2017

NOTE: "FAIR" INDICATES FEW OR NO CLOUDS BELOW 12,000 FEET WITH NO
      SIGNIFICANT WEATHER AND/OR OBSTRUCTIONS TO VISIBILITY.
      SKY/WX - SKY CONDITION AND SIGNIFICANT WEATHER.
      TMP - AIR TEMPERATURE.     DP    - DEWPOINT TEMPERATURE.
      RH  - RELATIVE HUMIDITY.   PRES  - PRESSURE.
      HI  - HEAT INDEX.          WCI   - WIND CHILL INDEX.

*  THESE STATIONS ARE NOT NWS OR FAA STATIONS AND ARE NOT UNDER
   NWS QUALITY CONTROL.

LAZ038-040-048-061>063-065>067-069-281100-
SOUTHEAST LOUISIANA

CITY           SKY/WX    TMP DP  RH WIND       PRES   REMARKS
N.O. INTL ARPT MOCLDY    69  69 100 S3        29.95R
N.O. LAKEFRONT CLOUDY    70  68  93 CALM      29.96R
N.O. DOWNTOWN*   N/A     74  69  85 S5        29.96R
RESERVE*       CLOUDY    71  69  94 CALM      29.95R
SLIDELL        CLOUDY    69  68  96 CALM      29.95R
BATON ROUGE    CLOUDY    72  69  90 SW5       29.94S
BOOTHVILLE     PTCLDY    71  71 100 S7        29.96S
BELLE CHASSE   MOCLDY   N/A N/A N/A CALM      29.95R
BOGALUSA*      NOT AVBL
GALLIANO*      CLOUDY    71  67  88 CALM      29.95R
NEW ROADS*       N/A     68  68  99 CALM      29.94S FOG
GONZALES*      FOG       65  65 100 CALM      29.94R VSB 1/4
HAMMOND*       FOG       63  61  94 CALM      29.95S VSB 1/2
HOUMA*         CLOUDY    71  69  94 S5        29.94S
PORT FOURCHON* MOSUNNY   73  70  88 S7        29.95R

$$

MSZ070-080>082-281100-
SOUTHERN MISSISSIPPI

CITY           SKY/WX    TMP DP  RH WIND       PRES   REMARKS
MCCOMB         CLOUDY    69  66  90 SW8       29.95R FOG
GULFPORT       PTCLDY    72  69  90 S5        29.96R
BILOXI         PTCLDY    71  68  93 SW9       29.96R
PASCAGOULA     MOCLDY    71  67  87 S3        29.96S

$$

COASTAL OBSERVATIONS
LAKE AND NEARSHORE STATIONS

STATION/POSITION TIME  TEMP    WIND        PRES    WAVE
                       AIR SEA DIR/SP/G            HT/PER
                 (UTC) (F)     (DEG/KT/KT) (MB)    (FT/S)
PASCAGOULA       0948   72     200/ 10/ 12 1014.3
WAVELAND YACHT   0948   71 75  210/  4/  7 1014.2
GRAND ISLE       0948   73 76  190/  5/  9 1013.9
SOUTHWEST PASS   0942          180/ 10/ 11   N/A
NEW CANAL        0948   72 72  210/  5/  6 1014.1
SHELL BEACH      0948   71 75  170/  5/  7 1014.4

OFFSHORE STATIONS

STATION/POSITION TIME  TEMP    WIND        PRES    WAVE
                       AIR SEA DIR/SP/G            HT/PER
                 (UTC) (F)     (DEG/KT/KT) (MB)    (FT/S)
64 S DAUPHIN ISL 0950   73 73  180/ 10/ 14 1015.0    3/ 5

$$




USA.gov is the U.S. government's official web portal to all federal, state and local government web resources and services.